Location: Fort Worth, Tx
(32.7431°N, 97.3695°W)
Time: 05:31:30
(UTC-05:00)

Courier 1B - Visible Passes

Search period start: 31 January 2023 00:00
Search period end: 10 February 2023 00:00
Orbit: 962 x 1209 km, 28.3° (Epoch: 30 January)

Date Brightness Start Highest point End Pass type
(mag) Time Alt. Az. Time Alt. Az. Time Alt. Az.
31 Jan 9.3 20:13:23 10° WSW 20:18:38 26° SSW 20:24:05 10° SSE visible
01 Feb 9.2 19:19:22 10° W 19:24:59 31° SSW 19:30:48 10° SE visible
01 Feb 10.0 21:16:35 10° SW 21:18:23 11° SSW 21:20:11 10° SSW visible
02 Feb 9.9 20:21:06 10° WSW 20:24:46 15° SSW 20:28:28 10° S visible
03 Feb 9.8 19:26:34 10° WSW 19:31:09 20° SSW 19:35:49 10° SSE visible
05 Feb 10.2 19:35:25 10° SW 19:37:14 11° SSW 19:39:03 10° SSW visible
